Location: Central Falls
(41.8900°N, 71.3929°W)
Time: 15:23:09
(UTC+00:00)

Vanguard 1 - Pass Details

Date: 04 December 2023
Orbit: 653 x 3826 km, 34.3° (Epoch: 24 February)

Event Time Altitude Azimuth Distance (km) Brightness Sun altitude
Rises 23:10:43 0° 242° (WSW) 5,726 15.3 -21.0°
Reaches altitude 10° 23:13:54 10° 239° (WSW) 5,063 14.7 -21.5°
Maximum altitude 23:29:58 63° 163° (SSE) 3,657 12.7 -24.5°
Enters shadow 23:42:53 33° 98° (E) 5,189 13.1 -26.9°
Drops below altitude 10° 23:52:56 10° 89° (E) 6,901 - -28.7°
Sets 23:58:11 0° 87° (E) 7,814 - -29.7°
